C/2020 Y2 ( ATLAS )

Japanese version
Home page
Updated on May 4, 2021

---------------------------------------------------------------------

* Profile

Discovery Date December 28, 2020
Magnitude 18.3 mag
Discoverer Asteroid Terrestrial-Impact Last Alert System (ATLAS) search program

* Pictures

* Orbital Elements

Epoch 2022 June 30.0 TT = JDT 2459760.5
T 2022 June 17.68958 TT                                 Rudenko
q   3.1324172            (2000.0)            P               Q
z  +0.0009235      Peri.  266.10470     -0.14804144     +0.88681313
 +/-0.0000023      Node    26.51450     +0.52180414     +0.44606466
e   0.9971073      Incl.  101.29739     -0.84012152     +0.12078407
From 308 observations 2020 Mar. 25-2021 May 2, mean residual 0".4.

* Finding Charts

* Magnitudes Graph

        m1 = -1.5 + 5 log d + 20.0 log r  [    ,-515]  (             - 2021 Jan. 18)
        m1 =  6.0 + 5 log d + 10.0 log r  [-515,    ]  (2021 Jan. 18 -             )

---------------------------------------------------------------------

The orbital elements are published on M.P.E.C. 2021-J28.
The charts are made with StellaNavigator Ver.10 (AstroArts).
The magnitudes graphs are made with Comet for Windows.

---------------------------------------------------------------------

Copyright(C) Seiichi Yoshida (comet@aerith.net). All rights reserved.